Regional Weather Roundup
Issued by NWS

Home | Current Version | Previous Version | Graphics & Text | Print | Product List | Glossary On
Versions: 1 2 3 4 5 6 7 8 9 10 11 12 13 14 15 16 17 18 19 20 21 22 23 24 25 26 27 28 29 30 31 32 33 34 35 36 37 38 39 40 41 42 43 44 45 46 47 48 49 50
000
ASUS45 KBOU 210107
RWRCO

WEATHER ROUNDUP FOR COLORADO
NATIONAL WEATHER SERVICE DENVER/BOULDER CO
600 PM MST THU NOV 20 2014

NOTE: "FAIR" INDICATES FEW OR NO CLOUDS BELOW 12000 FEET WITH NO
SIGNIFICANT WEATHER AND/OR OBSTRUCTIONS TO VISIBILITY.

COZ001>005-013-030-031-210200-
...NORTHWEST COLORADO...

CITY           SKY/WX    TMP DP  RH WIND       PRES   REMARKS
CRAIG          CLOUDY    31  21  66 CALM      30.07R
HAYDEN         CLOUDY    36  16  44 E3        30.07R
MEEKER         CLOUDY    34  24  67 NE3       30.05S
MOUNT WERNER   NOT AVBL
STEAMBOAT SPGS CLOUDY    31  18  58 CALM      30.07S
WALDEN         CLOUDY    32  18  55 S6        30.05S WCI  26
$$

COZ006>008-011-210200-
...WEST CENTRAL VALLEYS...

CITY           SKY/WX    TMP DP  RH WIND       PRES   REMARKS
GRAND JUNCTION CLOUDY    38  21  50 CALM      30.08S
MONTROSE       MOCLDY    32  17  54 SE3       30.11R
EAGLE          PTCLDY    30  21  69 CALM      30.12R
RIFLE          MOCLDY    34  20  56 S3        30.08S
DELTA          MOCLDY    37  15  41 NE5       30.10R
NUCLA          NOT AVBL
$$

COZ017>023-064>068-210200-
...SOUTHWEST COLORADO...

CITY           SKY/WX    TMP DP  RH WIND       PRES   REMARKS
DURANGO        CLOUDY    41  15  35 E3        30.08R
CORTEZ         PTCLDY    32  17  54 CALM      30.08R
PAGOSA SPRINGS MOCLDY    35  15  45 CALM      30.10S
TELLURIDE      MOCLDY    30  19  63 CALM      30.12F
WOLF CREEK PAS MOCLDY    18   5  57 SW13      30.14S WCI   4
$$

COZ009-010-012-014-032>034-037-058>063-210200-
...CENTRAL COLORADO...

CITY           SKY/WX    TMP DP  RH WIND       PRES   REMARKS
ASPEN          CLOUDY    28  15  58 S6        30.08R WCI  22
BUENA VISTA    CLOUDY    39   9  28 CALM      30.04R
COPPER MTN     CLOUDY    25  -2  30 W15       30.12S WCI  12
BERTHOUD PASS  CLOUDY    14  10  85 MISG      30.12R
COTTONWOOD PAS CLOUDY    36   3  25 W13G22    30.08R
GUNNISON       MOCLDY    28  14  54 CALM      30.15R
KREMMLING      CLOUDY    30  19  64 CALM      30.10S
LEADVILLE      MOCLDY    27   4  37 N7        30.08R WCI  19
MONARCH PASS   CLOUDY    19   3  49 W21       30.22S WCI   3
SALIDA         MOCLDY    43   1  17 SW17G23   30.11R
SUNLIGHT       MOCLDY    27  18  69 CALM      30.13S
WILKERSON PASS MOCLDY    28  10  47 NW6       30.12S WCI  22
$$

COZ069>075-210200-
...SAN LUIS VALLEY/SANGRE DE CRISTO MOUNTAINS...

CITY           SKY/WX    TMP DP  RH WIND       PRES   REMARKS
ALAMOSA        MOCLDY    32   8  36 NE3       30.06R
LA VETA PASS   NOT AVBL
SAGUACHE       MOCLDY    30  14  51 NE7       30.09R WCI  23
$$

COZ035-036-038>040-210200-
...NORTHERN COLORADO FRONT RANGE...

CITY           SKY/WX    TMP DP  RH WIND       PRES   REMARKS
DENVER INTL AP CLOUDY    43  24  47 VRB6      29.96R
DMNS CITY PARK   N/A     42  24  49 E3        29.97S
AURORA         MOCLDY    39  26  59 W3        29.98R
FRONT RANGE AP NOT AVBL
ERIE MUNI ARPT CLOUDY    38  27  64 CALM      29.97S
BOULDER MUN AP CLOUDY    41  23  48 NW3       29.97S
CENTENNIAL     CLOUDY    40  24  53 CALM      29.97R
BROOMFIELD     CLOUDY    43  23  45 N7        29.97S
FORT COLLINS   MOCLDY    39  25  56 CALM      29.99S
LONGMONT       MOCLDY    37  28  70 CALM      29.99S
$$

COZ041-046-047-076>085-087-088-210200-
...PIKES PEAK/PALMER DIVIDE AND SOUTHERN FOOTHILLS...

CITY           SKY/WX    TMP DP  RH WIND       PRES   REMARKS
COLO. SPRINGS  MOCLDY    39  17  41 CALM      30.02R
A. F. ACADEMY  PTCLDY    38  12  34 SE7       30.01R
ELLICOTT       CLOUDY    31  20  63 SE6       30.00R WCI  25
FALCON         NOT AVBL
FORT CARSON    CLOUDY    42  20  41 SW5       30.00R
LIMON          MOCLDY    38  15  39 S7        30.00R
MONUMENT HILL  MOCLDY    34  14  44 S9        29.99S WCI  26
TRINIDAD       PTCLDY    38  22  52 NW6       29.99R
$$

COZ042>045-048>051-090-091-210200-
...NORTHEAST COLORADO...

CITY           SKY/WX    TMP DP  RH WIND       PRES   REMARKS
GREELEY ARPT   MOCLDY    34  19  55 NW5       29.98R WCI  30
AKRON          CLEAR     39  15  37 S10       29.97R
BURLINGTON     MOCLDY    39  17  41 SE10      30.01R
WRAY           CLEAR     36  17  45 E8        30.00R
STERLING       CLEAR     34  19  55 CALM      29.95S
HOLYOKE        CLEAR     30  16  55 SE9       29.99R WCI  22
FORT MORGAN    CLEAR     42  12  29 SE3       29.97S
$$

COZ086-089-092>099-210200-
...SOUTHEAST COLORADO...

CITY           SKY/WX    TMP DP  RH WIND       PRES   REMARKS
PUEBLO         CLOUDY    38  29  70 CALM      29.99R
LA JUNTA       MOCLDY    41  30  65 E6        29.97R
LAMAR          PTCLDY    38  28  67 SE12      29.98R
SPRINGFIELD      N/A     36  28  73 S6        30.01R
$$



USA.gov is the U.S. government's official web portal to all federal, state and local government web resources and services.